GW5988 Weather Reports


Display with metric or nautical units.
time (UTC)temp
F
wind
direction
speed
MPH
gust
MPH
rain 1hr
in
rain 24hr
in
rain mn
in
humidity
%
barometer
mb
20260505050744 71 176 1.0 1.0 0.00 0.00 0.00 91 1019.3
20260505050242 71 160 1.0 1.0 0.00 0.00 0.00 91 1019.2
20260505041712 71 178 1.0 1.0 0.00 0.00 0.00 91 1020.0
20260505041209 71 162 1.0 2.0 0.00 0.00 0.00 91 1020.1
20260505040706 71 186 0.0 1.0 0.00 0.00 0.00 90 1020.1
20260505040203 71 207 1.0 2.0 0.00 0.00 0.00 90 1020.2
20260505035700 71 169 0.0 1.0 0.00 0.04 0.04 90 1020.0
20260505035156 71 231 2.0 2.0 0.00 0.04 0.04 90 1020.2
20260505034652 71 203 0.0 0.0 0.00 0.04 0.04 90 1020.0
20260505034150 71 110 2.0 2.0 0.00 0.04 0.04 90 1020.1
20260505033646 71 154 1.0 2.0 0.00 0.04 0.04 90 1020.0
20260505033145 71 173 2.0 2.0 0.00 0.04 0.04 90 1020.2
20260505032643 71 205 0.0 0.0 0.00 0.04 0.04 90 1020.1
20260505032138 71 204 0.0 0.0 0.00 0.04 0.04 90 1020.3
20260505031636 71 183 1.0 1.0 0.00 0.04 0.04 90 1020.1
20260505031132 71 199 0.0 0.0 0.00 0.04 0.04 90 1020.0
20260505030629 71 215 1.0 1.0 0.00 0.04 0.04 90 1020.3
20260505030125 71 178 0.0 1.0 0.00 0.04 0.04 90 1020.2
20260505025621 71 141 1.0 2.0 0.00 0.04 0.04 90 1020.3
20260505025120 71 188 0.0 0.0 0.00 0.04 0.04 90 1020.1
20260505024616 71 189 1.0 1.0 0.00 0.04 0.04 90 1020.2
20260505024114 71 200 0.0 0.0 0.00 0.04 0.04 90 1020.1
20260505023611 71 204 0.0 0.0 0.00 0.04 0.04 90 1020.3
20260505023109 70 198 0.0 0.0 0.00 0.04 0.04 90 1020.3
20260505022606 71 171 1.0 1.0 0.00 0.04 0.04 89 1020.1
20260505022103 71 205 0.0 0.0 0.00 0.04 0.04 89 1020.0
20260505021559 71 183 0.0 0.0 0.00 0.04 0.04 89 1020.1
20260505021056 71 186 1.0 1.0 0.00 0.04 0.04 89 1020.1
20260505020556 71 196 0.0 0.0 0.00 0.04 0.04 89 1020.0
20260505020053 71 196 0.0 0.0 0.00 0.04 0.04 89 1019.7
20260505015550 71 204 0.0 0.0 0.00 0.04 0.04 89 1019.9
20260505015047 71 210 0.0 1.0 0.00 0.04 0.04 89 1019.7
20260505014544 71 194 0.0 0.0 0.00 0.04 0.04 89 1019.9
20260505014041 71 209 0.0 0.0 0.00 0.04 0.04 89 1019.6
20260505013538 71 193 0.0 0.0 0.00 0.04 0.04 89 1019.7
20260505013035 71 194 0.0 0.0 0.00 0.04 0.04 89 1019.7
20260505012533 71 193 0.0 0.0 0.00 0.04 0.04 89 1019.7
20260505012030 71 197 0.0 0.0 0.00 0.04 0.04 89 1019.5
20260505011525 71 202 0.0 0.0 0.00 0.04 0.04 88 1019.4
20260505011023 71 196 0.0 0.0 0.00 0.04 0.04 89 1019.3
20260505010518 71 185 0.0 0.0 0.00 0.04 0.04 88 1019.4
20260505010015 71 189 0.0 0.0 0.00 0.04 0.04 88 1019.3
20260505005511 71 173 0.0 0.0 0.00 0.04 0.04 88 1019.1
20260505005009 71 184 0.0 0.0 0.00 0.04 0.04 88 1019.2
20260505004506 71 195 0.0 0.0 0.00 0.04 0.04 88 1019.1
20260505004002 71 139 2.0 2.0 0.00 0.04 0.04 88 1019.3
20260505003500 71 178 0.0 0.0 0.00 0.04 0.04 88 1019.0
20260505002956 71 171 1.0 1.0 0.00 0.04 0.04 88 1019.2
20260505002452 71 116 1.0 2.0 0.00 0.04 0.04 88 1019.1
20260505001950 71 159 1.0 1.0 0.00 0.04 0.04 88 1019.1
20260505001448 71 159 1.0 2.0 0.00 0.04 0.04 88 1019.1
20260505000945 72 103 2.0 2.0 0.00 0.04 0.04 88 1019.2
20260505000443 72 115 2.0 2.0 0.00 0.04 0.04 88 1019.2
20260504235940 72 141 1.0 2.0 0.00 0.04 0.04 88 1019.2
20260504235437 72 155 2.0 2.0 0.00 0.04 0.04 87 1019.2
20260504234933 73 87 3.0 3.0 0.00 0.04 0.04 87 1019.1
20260504234430 73 162 1.0 2.0 0.00 0.04 0.04 87 1019.1
20260504233927 73 161 1.0 1.0 0.00 0.04 0.04 86 1019.2
20260504233422 73 191 0.0 0.0 0.00 0.04 0.04 86 1019.1
20260504232919 74 192 0.0 0.0 0.00 0.04 0.04 86 1019.0
20260504232417 74 171 1.0 1.0 0.00 0.04 0.04 86 1019.0
20260504231914 74 148 2.0 2.0 0.00 0.04 0.04 86 1019.0
20260504231410 74 145 2.0 2.0 0.00 0.04 0.04 85 1019.0
20260504230906 75 187 1.0 1.0 0.00 0.04 0.04 84 1018.9
20260504230404 75 201 0.0 0.0 0.00 0.04 0.04 84 1018.9
20260504225903 75 196 0.0 1.0 0.00 0.04 0.04 84 1018.7
20260504225358 75 194 0.0 0.0 0.00 0.04 0.04 84 1018.6
20260504224856 75 193 2.0 2.0 0.00 0.04 0.04 84 1018.7
20260504224352 75 176 2.0 3.0 0.00 0.04 0.04 83 1018.6
20260504223849 75 196 0.0 0.0 0.00 0.04 0.04 83 1018.5
20260504223345 75 153 4.0 6.0 0.00 0.04 0.04 83 1018.6
20260504222841 75 202 2.0 3.0 0.00 0.04 0.04 83 1018.4
20260504222338 75 189 3.0 6.0 0.00 0.04 0.04 83 1018.4
20260504221837 75 189 1.0 2.0 0.00 0.04 0.04 82 1018.5
20260504221333 75 190 1.0 1.0 0.00 0.04 0.04 82 1018.4
20260504220830 75 190 3.0 3.0 0.00 0.04 0.04 82 1018.3
20260504220327 75 181 1.0 2.0 0.00 0.04 0.04 82 1018.1
20260504215824 75 161 3.0 4.0 0.00 0.04 0.04 81 1018.2
20260504215321 76 210 4.0 4.0 0.00 0.04 0.04 81 1018.0
20260504214817 76 236 4.0 8.0 0.00 0.04 0.04 81 1018.1
20260504214314 76 85 0.0 1.0 0.00 0.04 0.04 81 1017.8
20260504213810 76 186 4.0 6.0 0.00 0.04 0.04 80 1017.9
20260504213306 76 164 2.0 3.0 0.00 0.04 0.04 81 1017.9
20260504212804 77 216 2.0 4.0 0.00 0.04 0.04 81 1018.0
20260504212300 76 194 2.0 3.0 0.00 0.04 0.04 82 1017.8
20260504211758 76 216 3.0 6.0 0.00 0.04 0.04 83 1017.7
20260504211254 76 144 5.0 6.0 0.00 0.04 0.04 82 1017.8
20260504210751 76 170 1.0 1.0 0.00 0.04 0.04 82 1017.8
20260504210248 76 199 5.0 6.0 0.00 0.04 0.04 82 1017.8
20260504205745 77 204 4.0 4.0 0.00 0.04 0.04 81 1017.8
20260504205243 76 141 6.0 8.0 0.00 0.04 0.04 82 1017.7
20260504204741 75 165 6.0 7.0 0.00 0.04 0.04 83 1017.7
20260504204239 75 186 7.0 10.0 0.00 0.04 0.04 84 1017.6
20260504203738 75 172 3.0 3.0 0.00 0.04 0.04 85 1017.7
20260504203235 75 169 4.0 6.0 0.00 0.04 0.04 85 1017.6
20260504202735 75 224 6.0 8.0 0.07 0.04 0.04 85 1017.6
20260504202232 75 208 2.0 2.0 0.12 0.04 0.04 85 1017.7
20260504201730 76 158 6.0 9.0 0.05 0.03 0.03 83 1018.0
20260504201227 77 219 3.0 3.0 0.00 0.02 0.02 82 1018.0
20260504200724 76 193 5.0 7.0 0.00 0.02 0.02 82 1017.7
20260504200220 76 133 3.0 4.0 0.00 0.02 0.02 82 1017.9
20260504195717 76 97 8.0 9.0 0.00 0.02 0.02 83 1017.9
20260504195213 76 150 5.0 6.0 0.00 0.02 0.02 84 1017.8
20260504194710 75 123 6.0 7.0 0.00 0.02 0.02 85 1018.0
20260504194206 75 200 4.0 7.0 0.00 0.02 0.02 86 1018.0
20260504193702 76 150 4.0 6.0 0.00 0.02 0.02 86 1017.9
20260504193200 76 168 4.0 6.0 0.00 0.02 0.02 86 1018.0
20260504192658 75 92 9.0 11.0 0.00 0.02 0.02 85 1018.0
20260504192156 76 163 6.0 7.0 0.00 0.02 0.02 86 1018.0
20260504191654 75 98 4.0 7.0 0.00 0.02 0.02 86 1018.2
20260504191150 75 100 3.0 4.0 0.07 0.02 0.02 86 1018.2
20260504190646 75 80 3.0 6.0 0.07 0.02 0.02 85 1018.1
20260504190143 76 78 6.0 7.0 0.00 0.01 0.01 84 1018.2
20260504185639 77 182 6.0 8.0 0.00 0.01 0.01 81 1018.2
20260504185136 77 101 6.0 8.0 0.00 0.01 0.01 79 1018.2
20260504184631 78 227 6.0 8.0 0.00 0.01 0.01 78 1018.4
20260504184127 79 195 6.0 7.0 0.00 0.01 0.01 76 1018.2
20260504183624 79 129 2.0 3.0 0.00 0.01 0.01 76 1018.3
20260504183122 80 180 7.0 9.0 0.00 0.01 0.01 74 1018.3
20260504182620 78 170 5.0 7.0 0.00 0.01 0.01 75 1018.3
20260504182117 79 144 10.0 11.0 0.00 0.01 0.01 74 1018.3
20260504181614 78 174 6.0 8.0 0.00 0.01 0.01 74 1018.3
20260504181111 80 193 6.0 9.0 0.00 0.01 0.01 74 1018.4
20260504180610 79 220 5.0 8.0 0.00 0.01 0.01 75 1018.4
20260504180109 79 200 6.0 8.0 0.00 0.01 0.01 75 1018.5
20260504175606 79 197 8.0 10.0 0.00 0.01 0.01 75 1018.5
20260504175102 79 121 4.0 4.0 0.00 0.01 0.01 75 1018.8
20260504174600 78 193 6.0 9.0 0.00 0.01 0.01 75 1018.9
20260504174057 79 165 9.0 11.0 0.00 0.01 0.01 74 1018.9
20260504173554 78 110 3.0 4.0 0.00 0.01 0.01 75 1018.9
20260504173052 79 157 7.0 10.0 0.00 0.01 0.01 75 1019.0
20260504172547 79 109 1.0 2.0 0.00 0.01 0.01 73 1018.9
20260504172044 79 103 6.0 7.0 0.00 0.01 0.01 72 1019.1
20260504171541 80 100 5.0 7.0 0.00 0.01 0.01 72 1019.1
20260504171038 80 217 2.0 6.0 0.00 0.01 0.01 70 1019.0
20260504170533 81 173 4.0 4.0 0.00 0.01 0.01 69 1019.2
20260504150918 81 170 4.0 7.0 0.00 0.01 0.01 63 1019.9
20260504150414 80 101 12.0 13.0 0.00 0.01 0.01 65 1020.0
20260504140841 78 141 3.0 3.0 0.00 0.01 0.01 71 1019.4
20260504140336 78 163 7.0 11.0 0.00 0.01 0.01 71 1019.6
20260504130806 77 87 12.0 16.0 0.00 0.01 0.01 76 1019.6
20260504130302 76 104 16.0 18.0 0.00 0.01 0.01 76 1019.5
20260504120225 75 106 11.0 13.0 0.00 0.01 0.01 78 1019.6
20260504110653 73 192 3.0 3.0 0.00 0.01 0.01 81 1019.4
20260504110149 73 147 1.0 2.0 0.00 0.01 0.01 82 1019.5
20260504100615 72 200 0.0 0.0 0.00 0.01 0.01 83 1019.1
20260504100113 72 207 2.0 3.0 0.00 0.01 0.01 83 1019.0
20260504081506 73 187 1.0 1.0 0.00 0.01 0.01 83 1018.2
20260504081001 73 20 3.0 3.0 0.00 0.01 0.01 83 1018.1
20260504080458 73 148 2.0 3.0 0.00 0.01 0.01 84 1018.1